Location: Bathsheba
(13.2167°N, 59.5167°W)
Time: 22:51:00
(UTC+00:00)

Cosmos 1464 Rocket - Pass Details

Date: 18 September 2020
Orbit: 953 x 1001 km, 82.9° (Epoch: 20 October)

Event Time Altitude Azimuth Distance (km) Brightness Sun altitude
Rises 23:01:23 0° 179° (S) 3,626 6.9 -16.6°
Reaches altitude 10° 23:03:53 10° 178° (S) 2,678 6.2 -17.2°
Maximum altitude 23:09:59 75° 93° (E) 983 3.8 -18.6°
Drops below altitude 10° 23:16:05 10° 8° (N) 2,676 6.3 -20.1°
Sets 23:18:34 0° 7° (N) 3,624 7.0 -20.7°
